Weather History for Courtland, AL

Change the Weather History Date:

Thursday, August 8, 2013

  Actual Average (KMSL) Record (KMSL)
Temperature  
Mean Temperature 79 °F 80 °F  
Max Temperature 89 °F 91 °F 108 °F (1930)
Min Temperature 69 °F 70 °F 57 °F (1989)
Degree Days  
Heating Degree Days 0 0  
Month to date heating degree days 0  
Since 1 June heating degree days 1  
Since 1 July heating degree days 0  
Cooling Degree Days 14 15  
Month to date cooling degree days 127  
Year to date cooling degree days 1210  
Since 1 June cooling degree days 966  
Growing Degree Days 29 (Base 50)    
Moisture  
Dew Point 74 °F    
Average Humidity 91    
Maximum Humidity 100    
Minimum Humidity 59    
Precipitation  
Precipitation 0.00 in 0.10 in 1.49 in (1912)
Month to date precipitation 0.84  
Year to date precipitation 33.40  
Snow  
Snow 0.00 in - - ()
Month to date snowfall  
Since 1 June snowfall  
Since 1 July snowfall  
Snow Depth -    
Sea Level Pressure  
Sea Level Pressure 29.99 in    
Wind  
Wind Speed 4 mph (SSE)    
Max Wind Speed 12 mph    
Max Gust Speed 17 mph    
Visibility 9 miles    
Events Rain    
T = Trace of Precipitation, MM = Missing Value Source: NWS Daily Summary

Daily Weather History Graph

Daily Weather History Graph

Search for Another Location

Airport:

Trip Planner

Search our weather history database for the weather conditions in past years. The results will help you decide how hot, cold, wet, or windy it might be!

Date:

Astronomy

Aug. 08, 2013 Rise Set
Actual Time 6:04 AM CDT 7:44 PM CDT
Civil Twilight 5:37 AM CDT 8:11 PM CDT
Nautical Twilight 5:05 AM CDT 8:44 PM CDT
Astronomical Twilight 4:30 AM CDT 9:18 PM CDT
Moon 7:44 AM CDT (8/8) 8:31 PM CDT (8/8)
Length of Visible Light 14h 33m
Length of Day
13h 39m
Waxing Crescent, 3% of the Moon is Illuminated
Aug 8
Waxing Crescent
Aug 14
First Quarter
Aug 20
Full
Aug 28
Last Quarter
Sep 5
New

Hourly Weather History & Observations

Time (CDT) Temp. Heat Index Dew Point Humidity Pressure Visibility Wind Dir Wind Speed Gust Speed Precip Events Conditions
12:15 AM 71.6 °F - 71.6 °F 100% 30.00 in 10.0 mi South 3.5 mph - N/A   Clear
12:35 AM 71.6 °F - 71.6 °F 100% 30.00 in 10.0 mi South 4.6 mph - N/A   Clear
12:55 AM 71.6 °F - 71.6 °F 100% 30.00 in 10.0 mi South 5.8 mph - N/A   Clear
1:15 AM 71.6 °F - 71.6 °F 100% 30.00 in 10.0 mi South 5.8 mph - N/A   Clear
1:35 AM 71.6 °F - 71.6 °F 100% 29.99 in 10.0 mi South 3.5 mph - N/A   Clear
1:55 AM 71.6 °F - 71.6 °F 100% 29.98 in 10.0 mi Calm Calm - N/A   Clear
2:15 AM 71.6 °F - 71.6 °F 100% 29.98 in 10.0 mi Calm Calm - N/A   Clear
2:35 AM 71.6 °F - 71.6 °F 100% 29.98 in 10.0 mi Calm Calm - N/A   Clear
2:55 AM 69.8 °F - 69.8 °F 100% 29.98 in 10.0 mi SSE 3.5 mph - N/A   Clear
3:15 AM 69.8 °F - 69.8 °F 100% 29.97 in 10.0 mi South 4.6 mph - N/A   Clear
3:35 AM 71.6 °F - 71.6 °F 100% 29.97 in 10.0 mi Calm Calm - N/A   Clear
3:55 AM 69.8 °F - 69.8 °F 100% 29.96 in 10.0 mi Calm Calm - N/A   Clear
4:15 AM 69.8 °F - 69.8 °F 100% 29.97 in 10.0 mi Calm Calm - N/A   Clear
4:35 AM 71.6 °F - 71.6 °F 100% 29.97 in 10.0 mi SSE 3.5 mph - N/A   Clear
4:55 AM 69.8 °F - 69.8 °F 100% 29.97 in 10.0 mi SSE 3.5 mph - N/A   Clear
5:15 AM 69.8 °F - 69.8 °F 100% 29.98 in 10.0 mi Calm Calm - N/A   Clear
5:35 AM 69.8 °F - 69.8 °F 100% 29.99 in 10.0 mi Calm Calm - N/A   Clear
5:55 AM 69.8 °F - 69.8 °F 100% 29.99 in 10.0 mi Calm Calm - N/A   Clear
6:15 AM 69.8 °F - 69.8 °F 100% 29.98 in 7.0 mi ESE 3.5 mph - N/A   Clear
6:35 AM 69.8 °F - 69.8 °F 100% 29.98 in 5.0 mi Calm Calm - N/A   Clear
6:55 AM 71.6 °F - 71.6 °F 100% 29.98 in 7.0 mi SE 4.6 mph - N/A   Clear
7:15 AM 71.6 °F - 71.6 °F 100% 29.98 in 10.0 mi ESE 3.5 mph - N/A   Clear
7:35 AM 73.4 °F - 73.4 °F 100% 29.99 in 10.0 mi South 3.5 mph - N/A   Clear
7:55 AM 73.4 °F - 73.4 °F 100% 30.00 in 10.0 mi South 5.8 mph - N/A   Clear
8:15 AM 75.2 °F - 75.2 °F 100% 30.01 in 10.0 mi South 3.5 mph - N/A   Clear
8:35 AM 77.0 °F - 77.0 °F 100% 30.00 in 10.0 mi South 5.8 mph - N/A   Clear
8:55 AM 78.8 °F - 78.8 °F 100% 30.01 in 10.0 mi South 8.1 mph - N/A   Clear
9:15 AM 80.6 °F 87.1 °F 77.0 °F 89% 30.02 in 10.0 mi SW 8.1 mph - N/A   Scattered Clouds
9:35 AM 80.6 °F 88.1 °F 78.8 °F 94% 30.02 in 10.0 mi South 4.6 mph - N/A   Mostly Cloudy
9:55 AM 80.6 °F 88.1 °F 78.8 °F 94% 30.01 in 10.0 mi South 3.5 mph - N/A   Scattered Clouds
10:15 AM 82.4 °F 92.4 °F 78.8 °F 89% 30.02 in 10.0 mi Calm Calm - N/A   Scattered Clouds
10:35 AM 82.4 °F 92.4 °F 78.8 °F 89% 30.02 in 10.0 mi SSW 5.8 mph - N/A   Clear
10:55 AM 84.2 °F 96.1 °F 78.8 °F 84% 30.02 in 10.0 mi South 6.9 mph - N/A   Clear
11:15 AM 84.2 °F 96.1 °F 78.8 °F 84% 30.02 in 10.0 mi South 6.9 mph - N/A   Clear
11:35 AM 86.0 °F 99.3 °F 78.8 °F 79% 30.02 in 7.0 mi SSW 5.8 mph - N/A   Clear
11:55 AM 87.8 °F 102.5 °F 78.8 °F 75% 30.02 in 10.0 mi Calm Calm - N/A   Scattered Clouds
12:15 PM 86.0 °F 101.9 °F 80.6 °F 84% 30.01 in 10.0 mi South 5.8 mph - N/A   Mostly Cloudy
12:35 PM 87.8 °F 102.5 °F 78.8 °F 75% 30.00 in 10.0 mi South 6.9 mph - N/A   Mostly Cloudy
12:55 PM 87.8 °F 104.9 °F 80.6 °F 79% 29.99 in 10.0 mi SW 5.8 mph - N/A   Mostly Cloudy
1:15 PM 89.6 °F 99.8 °F 75.2 °F 62% 29.98 in 10.0 mi SSW 9.2 mph - N/A   Mostly Cloudy
1:35 PM 89.6 °F 98.2 °F 73.4 °F 59% 29.97 in 10.0 mi SW 5.8 mph - N/A   Mostly Cloudy
1:55 PM 89.6 °F 98.2 °F 73.4 °F 59% 29.97 in 10.0 mi South 5.8 mph - N/A   Mostly Cloudy
2:15 PM 87.8 °F 97.6 °F 75.2 °F 66% 29.96 in 10.0 mi SSW 4.6 mph - N/A   Mostly Cloudy
2:35 PM 86.0 °F 93.4 °F 73.4 °F 66% 29.96 in 10.0 mi SE 3.5 mph - N/A   Overcast
2:55 PM 78.8 °F - 71.6 °F 78% 29.97 in 10.0 mi NE 10.4 mph 17.3 mph N/A   Overcast
3:15 PM 78.8 °F - 69.8 °F 74% 29.98 in 10.0 mi NE 8.1 mph 11.5 mph N/A   Overcast
3:35 PM 78.8 °F - 71.6 °F 78% 29.98 in 10.0 mi ESE 6.9 mph - N/A   Mostly Cloudy
3:55 PM 77.0 °F - 71.6 °F 83% 29.98 in 10.0 mi ESE 11.5 mph - N/A   Overcast
4:15 PM 77.0 °F - 71.6 °F 83% 29.98 in 10.0 mi ESE 9.2 mph - N/A Rain Rain
4:35 PM 77.0 °F - 73.4 °F 89% 29.98 in 1.5 mi ESE 10.4 mph - N/A Rain Heavy Rain
4:55 PM 73.4 °F - 73.4 °F 100% 29.98 in 1.0 mi SE 11.5 mph - N/A Rain Heavy Rain
5:15 PM 73.4 °F - 73.4 °F 100% 30.00 in 1.0 mi ESE 6.9 mph - N/A Rain Heavy Rain
5:35 PM 73.4 °F - 73.4 °F 100% 30.00 in 0.2 mi SSE 11.5 mph - N/A Rain Heavy Rain
5:55 PM 73.4 °F - 73.4 °F 100% - - North - - N/A   Unknown
6:15 PM - - - N/A% - - North - - N/A   Unknown